Weather History for KBBP - June, 2013

Change the Weather History Date:

Monday, June 17, 2013

  Actual Average (KFLO) Record (KFLO)
Temperature  
Mean Temperature 79 °F 79 °F  
Max Temperature 89 °F 89 °F 105 °F (1981)
Min Temperature 69 °F 69 °F 55 °F (1979)
Degree Days  
Heating Degree Days 0 0  
Month to date heating degree days 0  
Since 1 June heating degree days 0  
Since 1 July heating degree days 2523  
Cooling Degree Days 14 14  
Month to date cooling degree days 205  
Year to date cooling degree days 512  
Since 1 June cooling degree days 205  
Growing Degree Days 29 (Base 50)    
Moisture  
Dew Point 67 °F    
Average Humidity 73    
Maximum Humidity 100    
Minimum Humidity 40    
Precipitation  
Precipitation 0.52 in 0.16 in 1.99 in (1953)
Month to date precipitation 2.66  
Year to date precipitation 18.02  
Sea Level Pressure  
Sea Level Pressure 30.02 in    
Wind  
Wind Speed 4 mph (South)    
Max Wind Speed 16 mph    
Max Gust Speed 34 mph    
Visibility 9 miles    
Events Rain , Thunderstorm    
T = Trace of Precipitation, MM = Missing Value Source: NWS Daily Summary

Daily Weather History Graph

Daily Weather History Graph

Search for Another Location

Airport or City:

Trip Planner

Search our weather history database for the weather conditions in past years. The results will help you decide how hot, cold, wet, or windy it might be!

Date:

Astronomy

Jun. 17, 2013 Rise Set
Actual Time 6:05 AM EDT 8:34 PM EDT
Civil Twilight 5:36 AM EDT 9:03 PM EDT
Nautical Twilight 4:59 AM EDT 9:40 PM EDT
Astronomical Twilight 4:19 AM EDT 10:20 PM EDT
Moon 2:23 PM EDT (6/17) 1:27 AM EDT (6/17)
Length of Visible Light 15h 27m
Length of Day
14h 28m
First Quarter, 60% of the Moon is Illuminated
Jun 17
First Quarter
Jun 23
Full
Jun 30
Last Quarter
Jul 8
New
Jul 15
First Quarter

Hourly Weather History & Observations

Time (EDT) Temp. Heat Index Dew Point Humidity Pressure Visibility Wind Dir Wind Speed Gust Speed Precip Events Conditions
12:15 AM 73.4 °F - 62.6 °F 69% 30.07 in 10.0 mi South 5.8 mph - N/A   Clear
12:35 AM 73.4 °F - 62.6 °F 69% 30.07 in 10.0 mi South 4.6 mph - N/A   Clear
12:55 AM 73.4 °F - 62.6 °F 69% 30.07 in 10.0 mi South 3.5 mph - N/A   Clear
1:15 AM 73.4 °F - 64.4 °F 73% 30.07 in 10.0 mi South 3.5 mph - N/A   Scattered Clouds
1:35 AM 71.6 °F - 64.4 °F 78% 30.07 in 10.0 mi South 3.5 mph - N/A   Clear
1:55 AM 71.6 °F - 64.4 °F 78% 30.07 in 10.0 mi South 3.5 mph - N/A   Mostly Cloudy
2:15 AM 71.6 °F - 62.6 °F 73% 30.07 in 10.0 mi South 3.5 mph - N/A   Scattered Clouds
2:35 AM 71.6 °F - 64.4 °F 78% 30.06 in 10.0 mi South 4.6 mph - N/A   Scattered Clouds
2:55 AM 71.6 °F - 62.6 °F 73% 30.06 in 10.0 mi South 4.6 mph - N/A   Scattered Clouds
3:15 AM 71.6 °F - 64.4 °F 78% 30.06 in 10.0 mi South 3.5 mph - N/A   Clear
3:35 AM 71.6 °F - 64.4 °F 78% 30.06 in 10.0 mi SSE 3.5 mph - N/A   Clear
3:55 AM 69.8 °F - 64.4 °F 83% 30.06 in 10.0 mi Calm Calm - N/A   Clear
4:15 AM 69.8 °F - 64.4 °F 83% 30.06 in 10.0 mi South 3.5 mph - N/A   Clear
4:35 AM 69.8 °F - 64.4 °F 83% 30.06 in 10.0 mi South 3.5 mph - N/A   Scattered Clouds
4:55 AM 69.8 °F - 64.4 °F 83% 30.06 in 10.0 mi SSW 3.5 mph - N/A   Scattered Clouds
5:15 AM 69.8 °F - 64.4 °F 83% 30.06 in 10.0 mi South 3.5 mph - N/A   Scattered Clouds
5:35 AM 69.8 °F - 64.4 °F 83% 30.06 in 10.0 mi SSW 3.5 mph - N/A   Scattered Clouds
5:55 AM 69.8 °F - 64.4 °F 83% 30.06 in 10.0 mi SSW 3.5 mph - N/A   Mostly Cloudy
6:15 AM 69.8 °F - 66.2 °F 88% 30.05 in 10.0 mi Calm Calm - N/A   Scattered Clouds
6:35 AM 69.8 °F - 66.2 °F 88% 30.05 in 10.0 mi Calm Calm - N/A   Scattered Clouds
6:55 AM 69.8 °F - 66.2 °F 88% 30.06 in 10.0 mi Calm Calm - N/A   Clear
7:15 AM 71.6 °F - 66.2 °F 83% 30.06 in 10.0 mi South 4.6 mph - N/A   Clear
7:35 AM 73.4 °F - 66.2 °F 78% 30.06 in 10.0 mi South 4.6 mph - N/A   Mostly Cloudy
7:55 AM 73.4 °F - 66.2 °F 78% 30.06 in 10.0 mi South 3.5 mph - N/A   Scattered Clouds
8:15 AM 77.0 °F - 64.4 °F 65% 30.05 in 10.0 mi South 3.5 mph - N/A   Clear
8:35 AM 77.0 °F - 64.4 °F 65% 30.06 in 10.0 mi South 5.8 mph - N/A   Clear
8:55 AM 78.8 °F - 64.4 °F 61% 30.05 in 10.0 mi South 5.8 mph - N/A   Clear
9:15 AM 78.8 °F - 62.6 °F 57% 30.05 in 10.0 mi SSW 6.9 mph - N/A   Clear
9:35 AM 82.4 °F 83.4 °F 62.6 °F 51% 30.05 in 10.0 mi SSW 9.2 mph - N/A   Clear
9:55 AM 82.4 °F 83.4 °F 62.6 °F 51% 30.05 in 10.0 mi SSW 8.1 mph - N/A   Clear
10:15 AM 82.4 °F 83.4 °F 62.6 °F 51% 30.04 in 10.0 mi SSW 9.2 mph - N/A   Clear
10:35 AM 86.0 °F 86.6 °F 62.6 °F 45% 30.04 in 10.0 mi South 8.1 mph - N/A   Clear
10:55 AM 84.2 °F 85.0 °F 62.6 °F 48% 30.04 in 10.0 mi South 8.1 mph - N/A   Mostly Cloudy
11:15 AM 84.2 °F 85.0 °F 62.6 °F 48% 30.04 in 10.0 mi SSW 8.1 mph - N/A   Mostly Cloudy
11:35 AM 86.0 °F 86.6 °F 62.6 °F 45% 30.04 in 10.0 mi SW 5.8 mph - N/A   Mostly Cloudy
11:55 AM 84.2 °F 85.0 °F 62.6 °F 48% 30.04 in 10.0 mi WSW 5.8 mph - N/A   Overcast
12:15 PM 84.2 °F 85.6 °F 64.4 °F 51% 30.03 in 10.0 mi WSW 4.6 mph - N/A   Overcast
12:35 PM 82.4 °F 84.6 °F 66.2 °F 58% 30.03 in 10.0 mi South 5.8 mph - N/A   Overcast
12:55 PM 86.0 °F 86.6 °F 62.6 °F 45% 30.03 in 10.0 mi SSW 4.6 mph - N/A   Mostly Cloudy
1:15 PM 87.8 °F 89.4 °F 64.4 °F 46% 30.02 in 10.0 mi South 6.9 mph - N/A   Mostly Cloudy
1:35 PM 87.8 °F 88.5 °F 62.6 °F 43% 30.02 in 10.0 mi South 8.1 mph - N/A   Scattered Clouds
1:55 PM 89.6 °F 90.1 °F 62.6 °F 40% 30.02 in 10.0 mi South 6.9 mph - N/A   Clear
2:15 PM 89.6 °F 90.1 °F 62.6 °F 40% 30.01 in 10.0 mi South 5.8 mph - N/A   Clear
2:35 PM 87.8 °F 88.5 °F 62.6 °F 43% 30.01 in 10.0 mi South 4.6 mph - N/A   Scattered Clouds
2:55 PM 87.8 °F 89.4 °F 64.4 °F 46% 30.00 in 10.0 mi South 5.8 mph - N/A   Overcast
3:15 PM 82.4 °F 86.3 °F 69.8 °F 66% 29.99 in 10.0 mi South 3.5 mph - N/A Rain Light Rain
3:35 PM 82.4 °F 85.4 °F 68.0 °F 62% 29.98 in 10.0 mi Calm Calm - N/A Rain Rain
3:55 PM 86.0 °F 90.4 °F 69.8 °F 58% 29.96 in 10.0 mi ESE 4.6 mph - N/A   Mostly Cloudy
4:15 PM 84.2 °F 88.4 °F 69.8 °F 62% 29.96 in 10.0 mi South 10.4 mph - N/A Rain Light Rain
4:35 PM 80.6 °F 85.4 °F 73.4 °F 79% 29.96 in 2.0 mi Calm Calm - 0.06 in Rain Heavy Rain
4:55 PM 82.4 °F 89.5 °F 75.2 °F 79% 29.95 in 10.0 mi NE 3.5 mph - 0.07 in   Mostly Cloudy
5:15 PM 82.4 °F 88.2 °F 73.4 °F 74% 29.95 in 10.0 mi Calm Calm - N/A   Mostly Cloudy
5:35 PM 82.4 °F 87.2 °F 71.6 °F 70% 29.96 in 10.0 mi SSW 6.9 mph - N/A Thunderstorm Scattered Clouds
5:55 PM 80.6 °F 83.9 °F 69.8 °F 70% 29.97 in 10.0 mi East 3.5 mph - N/A Thunderstorm Scattered Clouds
6:15 PM 80.6 °F 85.4 °F 73.4 °F 79% 29.98 in 10.0 mi NW 6.9 mph - N/A Thunderstorm Mostly Cloudy
6:35 PM 77.0 °F - 71.6 °F 83% 29.97 in 5.0 mi Calm Calm - N/A Rain Rain
6:55 PM 77.0 °F - 73.4 °F 89% 29.97 in 2.5 mi Calm Calm - 0.09 in Rain Heavy Rain
7:15 PM 77.0 °F - 73.4 °F 89% 29.96 in 7.0 mi Calm Calm - N/A Rain Light Rain
7:35 PM 77.0 °F - 73.4 °F 89% 29.96 in 10.0 mi Calm Calm - N/A   Scattered Clouds
7:55 PM 77.0 °F - 75.2 °F 94% 29.96 in 7.0 mi Calm Calm - N/A   Overcast
8:15 PM 77.0 °F - 77.0 °F 100% 29.95 in 5.0 mi Calm Calm - N/A   Mostly Cloudy
8:35 PM 75.2 °F - 73.4 °F 94% 29.98 in 7.0 mi NNW 4.6 mph - N/A   Mostly Cloudy
8:55 PM 71.6 °F - 71.6 °F 100% 30.01 in 1.2 mi West 16.1 mph 34.5 mph 0.16 in Rain , Thunderstorm Heavy Thunderstorms and Rain
9:15 PM 71.6 °F - 71.6 °F 100% 30.02 in 4.0 mi WSW 8.1 mph 17.3 mph 0.09 in Rain Rain
9:35 PM 71.6 °F - 71.6 °F 100% 30.02 in 7.0 mi SW 6.9 mph - 0.12 in Rain , Thunderstorm Thunderstorms and Rain
9:55 PM 71.6 °F - 71.6 °F 100% 30.01 in 7.0 mi SSW 4.6 mph - 0.16 in Rain Rain
10:15 PM 71.6 °F - 71.6 °F 100% 30.01 in 7.0 mi South 3.5 mph - 0.02 in Rain Light Rain
10:35 PM 71.6 °F - 71.6 °F 100% 30.00 in 7.0 mi SSE 3.5 mph - 0.04 in Rain Rain
10:55 PM 71.6 °F - 71.6 °F 100% 30.00 in 10.0 mi South 5.8 mph - 0.04 in Rain Light Rain
11:15 PM 71.6 °F - 71.6 °F 100% 30.01 in 10.0 mi South 4.6 mph - N/A   Clear
11:35 PM 71.6 °F - 71.6 °F 100% 30.01 in 10.0 mi South 4.6 mph - N/A   Scattered Clouds
11:55 PM 71.6 °F - 71.6 °F 100% 30.01 in 10.0 mi South 4.6 mph - N/A   Mostly Cloudy